Location: ??????????
(54.8537°N, 38.8755°E)
Time: 22:29:59
(UTC+00:00)

Explorer 7 - Visible Passes

Search period start: 11 September 2024 00:00
Search period end: 21 September 2024 00:00
Orbit: 462 x 610 km, 50.3° (Epoch: 10 September)

Date Brightness Start Highest point End Pass type
(mag) Time Alt. Az. Time Alt. Az. Time Alt. Az.
11 Sep 9.0 01:03:35 10° S 01:05:06 12° SE 01:06:36 10° ESE visible
12 Sep 8.8 00:53:41 12° S 00:54:58 14° SSE 00:56:59 10° ESE visible
13 Sep 8.6 00:44:08 16° SSE 00:44:49 16° SSE 00:47:10 10° ESE visible
14 Sep 8.4 00:34:30 19° SSE 00:34:37 19° SSE 00:37:14 10° ESE visible
14 Sep 7.4 02:10:04 10° WSW 02:13:28 37° S 02:16:50 10° ESE visible
15 Sep 8.3 00:24:49 21° SE 00:24:49 21° SE 00:27:13 10° ESE visible
15 Sep 7.3 02:00:10 12° WSW 02:03:17 39° S 02:06:41 10° ESE visible
16 Sep 8.4 00:15:04 21° SE 00:15:04 21° SE 00:17:07 10° ESE visible
16 Sep 7.2 01:50:25 15° WSW 01:53:03 40° S 01:56:29 10° ESE visible
17 Sep 8.5 00:05:17 20° ESE 00:05:17 20° ESE 00:06:56 10° E visible
17 Sep 7.2 01:40:38 20° WSW 01:42:47 40° S 01:46:13 10° ESE visible
17 Sep 8.8 23:55:28 18° ESE 23:55:28 18° ESE 23:56:42 10° E visible
18 Sep 7.1 01:30:48 25° SW 01:32:29 41° S 01:35:55 10° ESE visible
18 Sep 9.1 23:45:38 15° ESE 23:45:38 15° ESE 23:46:25 10° E visible
19 Sep 7.1 01:20:58 30° SW 01:22:07 40° S 01:25:33 10° ESE visible
19 Sep 9.4 23:35:48 12° ESE 23:35:48 12° ESE 23:36:03 10° E visible
20 Sep 7.1 01:11:09 36° SSW 01:11:43 39° S 01:15:08 10° ESE visible
